Precipitable_Water
0.62 0.64 0.62 0.61 0.62 0.62 0.60 0.60 0.59 0.58 0.56 0.55 0.54 0.53 0.52 0.52 0.52 0.52 0.52 0.52 0.51 0.49 0.46 0.41 0.37 0.36 0.35 0.37 0.44 0.50 0.54 0.49 0.52 0.59 0.68 0.78 0.77 0.75 0.68 0.64 0.61 0.65 0.66 0.61 0.60 0.60 0.57 0.58 0.57 0.61 0.60 0.59 0.58 0.59 0.63 0.71 0.76 0.80 0.73 0.56 0.38 0.43 0.42 0.55 0.52 0.62 0.73 0.73 0.82 0.92 1.00 1.00 0.95 1.14 1.20 1.35 1.23 1.22 1.24 1.24 1.34 1.43 1.43 1.52 1.58 1.75 1.84 1.91
0.59 0.61 0.62 0.61 0.61 0.62 0.61 0.61 0.61 0.59 0.57 0.55 0.54 0.53 0.52 0.51 0.50 0.50 0.52 0.51 0.50 0.47 0.41 0.38 0.37 0.36 0.36 0.36 0.41 0.48 0.48 0.47 0.50 0.62 0.74 0.81 0.85 0.78 0.72 0.67 0.66 0.68 0.68 0.59 0.57 0.57 0.54 0.53 0.57 0.58 0.56 0.52 0.59 0.54 0.65 0.60 0.73 0.65 0.64 0.53 0.35 0.49 0.49 0.67 0.63 0.67 0.70 0.71 0.82 0.89 1.04 1.09 1.03 1.18 1.21 1.09 1.03 1.09 1.09 1.17 1.29 1.25 1.37 1.48 1.54 1.62 1.65 1.71
0.57 0.58 0.59 0.60 0.60 0.60 0.61 0.61 0.61 0.60 0.58 0.56 0.55 0.53 0.52 0.52 0.51 0.52 0.51 0.51 0.48 0.42 0.39 0.38 0.37 0.36 0.36 0.36 0.39 0.47 0.45 0.40 0.55 0.60 0.72 0.82 0.85 0.78 0.73 0.70 0.70 0.67 0.62 0.57 0.59 0.58 0.56 0.56 0.56 0.54 0.51 0.50 0.54 0.50 0.57 0.55 0.70 0.68 0.55 0.43 0.48 0.60 0.61 0.69 0.70 0.68 0.77 0.82 0.81 0.84 0.91 1.06 1.15 1.21 1.31 1.11 1.07 1.12 0.98 1.05 1.18 1.18 1.19 1.33 1.41 1.50 1.57 1.62
0.54 0.56 0.58 0.59 0.58 0.57 0.59 0.59 0.60 0.60 0.59 0.58 0.56 0.54 0.53 0.52 0.51 0.51 0.52 0.48 0.44 0.40 0.39 0.38 0.37 0.36 0.37 0.36 0.39 0.47 0.42 0.42 0.48 0.66 0.83 0.89 0.91 0.82 0.71 0.72 0.70 0.69 0.65 0.62 0.61 0.58 0.59 0.58 0.55 0.51 0.48 0.50 0.51 0.55 0.52 0.61 0.69 0.64 0.56 0.45 0.53 0.69 0.64 0.72 0.79 0.76 0.81 0.87 0.88 0.88 0.90 0.97 1.10 1.15 1.18 1.12 1.07 1.05 1.11 1.17 1.17 1.17 1.25 1.35 1.43 1.47 1.51 1.55
0.54 0.54 0.56 0.58 0.58 0.56 0.55 0.56 0.57 0.58 0.58 0.57 0.56 0.54 0.54 0.53 0.52 0.51 0.49 0.45 0.43 0.40 0.39 0.38 0.37 0.37 0.36 0.35 0.40 0.49 0.34 0.35 0.51 0.75 0.85 0.89 0.91 0.83 0.73 0.74 0.74 0.69 0.64 0.59 0.58 0.58 0.58 0.54 0.51 0.49 0.48 0.43 0.45 0.47 0.49 0.62 0.61 0.64 0.52 0.56 0.66 0.73 0.63 0.74 0.82 0.85 0.81 0.87 0.86 0.88 0.80 0.83 1.11 1.10 1.08 1.06 0.91 0.88 1.06 1.21 1.30 1.31 1.37 1.36 1.39 1.46 1.53 1.53
0.55 0.54 0.55 0.57 0.58 0.57 0.54 0.54 0.55 0.55 0.55 0.55 0.55 0.53 0.53 0.52 0.50 0.49 0.46 0.45 0.43 0.40 0.38 0.38 0.38 0.37 0.37 0.37 0.45 0.46 0.38 0.24 0.64 0.73 0.83 0.82 0.84 0.81 0.75 0.77 0.70 0.65 0.60 0.54 0.52 0.54 0.54 0.51 0.48 0.44 0.44 0.43 0.42 0.41 0.48 0.58 0.62 0.50 0.59 0.65 0.70 0.69 0.66 0.82 0.83 0.86 0.85 0.82 0.77 0.75 0.83 0.89 0.92 0.95 1.08 1.08 0.99 1.05 1.26 1.31 1.33 1.39 1.42 1.45 1.49 1.50 1.50 1.51
0.56 0.55 0.54 0.55 0.57 0.56 0.54 0.52 0.53 0.54 0.54 0.54 0.53 0.51 0.50 0.50 0.48 0.47 0.46 0.45 0.43 0.41 0.38 0.38 0.39 0.41 0.37 0.40 0.49 0.48 0.45 0.47 0.61 0.79 0.83 0.83 0.84 0.78 0.72 0.75 0.71 0.61 0.56 0.51 0.54 0.50 0.49 0.47 0.46 0.43 0.44 0.41 0.39 0.43 0.52 0.59 0.57 0.47 0.51 0.68 0.68 0.74 0.71 0.84 0.76 0.82 0.84 0.82 0.78 0.82 0.87 0.75 0.84 0.81 1.00 0.98 1.13 1.24 1.31 1.36 1.33 1.38 1.44 1.43 1.40 1.43 1.44 1.43
0.56 0.56 0.55 0.54 0.54 0.55 0.54 0.52 0.51 0.52 0.53 0.53 0.52 0.51 0.50 0.48 0.47 0.46 0.46 0.45 0.43 0.40 0.39 0.38 0.41 0.41 0.40 0.34 0.33 0.39 0.49 0.50 0.68 0.85 0.85 0.84 0.83 0.75 0.71 0.68 0.67 0.58 0.54 0.53 0.49 0.47 0.48 0.44 0.43 0.44 0.40 0.37 0.38 0.38 0.36 0.48 0.55 0.53 0.56 0.67 0.69 0.75 0.77 0.83 0.78 0.73 0.78 0.80 0.82 0.81 0.74 0.70 0.80 0.83 1.01 0.93 1.07 1.24 1.34 1.40 1.38 1.36 1.38 1.34 1.34 1.34 1.38 1.40
0.54 0.55 0.55 0.54 0.53 0.54 0.54 0.52 0.51 0.50 0.52 0.52 0.52 0.51 0.49 0.48 0.47 0.46 0.46 0.45 0.43 0.41 0.39 0.40 0.40 0.41 0.47 0.40 0.33 0.37 0.45 0.68 0.77 0.82 0.84 0.80 0.77 0.74 0.68 0.64 0.63 0.53 0.52 0.50 0.47 0.49 0.47 0.43 0.46 0.46 0.37 0.37 0.37 0.34 0.36 0.42 0.45 0.60 0.58 0.66 0.67 0.73 0.81 0.78 0.77 0.76 0.75 0.78 0.81 0.73 0.72 0.82 0.88 0.98 0.87 0.94 1.04 1.20 1.33 1.36 1.34 1.33 1.28 1.27 1.26 1.32 1.34 1.38
0.54 0.54 0.54 0.54 0.53 0.52 0.53 0.52 0.50 0.49 0.50 0.51 0.52 0.51 0.49 0.47 0.46 0.47 0.46 0.44 0.43 0.41 0.40 0.40 0.41 0.41 0.41 0.34 0.35 0.34 0.55 0.79 0.77 0.76 0.75 0.71 0.71 0.67 0.64 0.69 0.62 0.50 0.47 0.45 0.48 0.46 0.45 0.45 0.47 0.48 0.46 0.41 0.41 0.33 0.36 0.33 0.32 0.50 0.60 0.63 0.67 0.72 0.73 0.77 0.73 0.76 0.76 0.74 0.78 0.69 0.67 0.73 0.85 0.84 0.71 1.00 1.07 1.18 1.22 1.25 1.29 1.25 1.20 1.24 1.23 1.28 1.34 1.40
0.54 0.53 0.53 0.53 0.52 0.51 0.51 0.52 0.51 0.49 0.48 0.49 0.51 0.51 0.50 0.48 0.47 0.47 0.45 0.44 0.42 0.41 0.41 0.40 0.44 0.42 0.30 0.39 0.33 0.36 0.67 0.71 0.71 0.71 0.69 0.67 0.64 0.61 0.62 0.70 0.63 0.51 0.49 0.45 0.45 0.46 0.50 0.49 0.50 0.48 0.44 0.37 0.40 0.37 0.38 0.35 0.39 0.50 0.59 0.65 0.71 0.74 0.71 0.78 0.78 0.74 0.77 0.68 0.79 0.74 0.70 0.78 0.79 0.80 0.70 0.89 1.05 1.11 1.07 1.14 1.18 1.18 1.16 1.20 1.24 1.25 1.32 1.41
0.54 0.53 0.53 0.52 0.51 0.51 0.51 0.51 0.50 0.48 0.47 0.48 0.49 0.51 0.50 0.48 0.47 0.46 0.45 0.43 0.42 0.41 0.41 0.41 0.43 0.43 0.43 0.39 0.37 0.44 0.63 0.68 0.70 0.66 0.62 0.62 0.60 0.61 0.66 0.70 0.64 0.56 0.49 0.43 0.40 0.46 0.52 0.50 0.49 0.44 0.35 0.46 0.36 0.39 0.38 0.43 0.42 0.42 0.52 0.56 0.66 0.71 0.66 0.77 0.70 0.71 0.76 0.63 0.79 0.80 0.73 0.68 0.68 0.67 0.79 0.91 1.02 1.06 1.05 1.07 1.12 1.16 1.15 1.18 1.24 1.26 1.29 1.37
0.54 0.54 0.53 0.52 0.52 0.50 0.50 0.50 0.50 0.48 0.47 0.47 0.48 0.50 0.50 0.49 0.47 0.46 0.45 0.42 0.42 0.42 0.42 0.43 0.42 0.44 0.37 0.29 0.42 0.58 0.63 0.65 0.65 0.62 0.60 0.59 0.61 0.66 0.68 0.69 0.66 0.60 0.50 0.45 0.42 0.49 0.51 0.51 0.48 0.40 0.43 0.42 0.39 0.36 0.40 0.45 0.43 0.42 0.50 0.51 0.60 0.58 0.58 0.74 0.77 0.71 0.68 0.62 0.76 0.72 0.44 0.52 0.62 0.70 0.82 0.94 0.99 1.02 1.01 1.02 1.07 1.13 1.15 1.18 1.21 1.26 1.30 1.36
0.55 0.53 0.53 0.52 0.51 0.50 0.50 0.50 0.49 0.49 0.47 0.47 0.47 0.48 0.48 0.48 0.47 0.46 0.44 0.42 0.42 0.42 0.42 0.42 0.46 0.44 0.37 0.32 0.44 0.56 0.63 0.62 0.62 0.56 0.56 0.56 0.55 0.59 0.64 0.66 0.67 0.60 0.56 0.47 0.46 0.51 0.49 0.48 0.47 0.41 0.48 0.45 0.39 0.49 0.44 0.44 0.43 0.36 0.40 0.51 0.44 0.46 0.47 0.69 0.71 0.65 0.58 0.68 0.72 0.69 0.41 0.48 0.62 0.74 0.87 0.94 1.00 0.95 0.92 0.97 1.02 1.10 1.14 1.17 1.20 1.23 1.27 1.31
0.57 0.56 0.53 0.51 0.48 0.48 0.48 0.48 0.47 0.46 0.47 0.46 0.46 0.46 0.47 0.46 0.46 0.45 0.44 0.42 0.42 0.45 0.44 0.45 0.53 0.40 0.34 0.37 0.52 0.60 0.66 0.62 0.44 0.45 0.54 0.49 0.50 0.53 0.56 0.61 0.62 0.61 0.55 0.49 0.46 0.50 0.46 0.46 0.46 0.43 0.41 0.48 0.47 0.42 0.39 0.39 0.36 0.35 0.33 0.33 0.45 0.39 0.48 0.61 0.70 0.61 0.49 0.61 0.77 0.63 0.43 0.44 0.59 0.72 0.87 0.94 0.99 0.95 0.89 0.91 0.98 1.05 1.07 1.12 1.18 1.23 1.26 1.30
0.58 0.55 0.53 0.51 0.49 0.48 0.47 0.46 0.47 0.46 0.46 0.46 0.45 0.44 0.45 0.46 0.46 0.44 0.44 0.43 0.44 0.46 0.46 0.34 0.42 0.39 0.30 0.26 0.36 0.56 0.46 0.37 0.37 0.44 0.48 0.50 0.49 0.50 0.53 0.53 0.56 0.58 0.55 0.46 0.47 0.47 0.43 0.45 0.42 0.42 0.42 0.44 0.41 0.37 0.35 0.33 0.30 0.29 0.28 0.29 0.33 0.41 0.46 0.52 0.57 0.60 0.55 0.57 0.71 0.59 0.40 0.48 0.58 0.75 0.86 0.96 0.95 0.91 0.87 0.91 0.94 1.01 1.05 1.09 1.13 1.18 1.25 1.32
0.59 0.56 0.53 0.51 0.49 0.48 0.47 0.45 0.44 0.44 0.45 0.44 0.44 0.42 0.44 0.45 0.46 0.46 0.44 0.43 0.43 0.48 0.40 0.26 0.36 0.43 0.23 0.38 0.47 0.32 0.33 0.37 0.41 0.39 0.43 0.49 0.50 0.49 0.48 0.48 0.47 0.49 0.50 0.46 0.45 0.43 0.42 0.37 0.38 0.41 0.43 0.39 0.37 0.36 0.32 0.30 0.26 0.25 0.26 0.31 0.37 0.36 0.42 0.37 0.46 0.57 0.57 0.53 0.47 0.64 0.47 0.45 0.56 0.73 0.84 0.93 0.94 0.89 0.85 0.87 0.92 0.98 1.03 1.08 1.10 1.12 1.18 1.23
0.58 0.57 0.55 0.52 0.50 0.48 0.46 0.44 0.43 0.42 0.43 0.43 0.41 0.40 0.39 0.44 0.50 0.47 0.40 0.43 0.48 0.43 0.39 0.43 0.45 0.27 0.20 0.37 0.31 0.33 0.41 0.43 0.42 0.42 0.45 0.50 0.52 0.47 0.45 0.43 0.44 0.43 0.42 0.37 0.38 0.31 0.35 0.36 0.40 0.36 0.38 0.36 0.34 0.31 0.28 0.24 0.24 0.25 0.25 0.26 0.35 0.34 0.30 0.34 0.37 0.43 0.54 0.54 0.43 0.51 0.52 0.51 0.61 0.73 0.79 0.87 0.93 0.87 0.83 0.86 0.91 0.95 0.99 1.06 1.09 1.09 1.13 1.16
0.59 0.58 0.56 0.53 0.49 0.47 0.46 0.45 0.43 0.41 0.41 0.42 0.41 0.43 0.47 0.49 0.48 0.44 0.33 0.34 0.26 0.18 0.12 0.18 0.20 0.16 0.18 0.29 0.36 0.37 0.38 0.43 0.46 0.44 0.41 0.46 0.48 0.49 0.48 0.47 0.44 0.39 0.33 0.30 0.30 0.34 0.39 0.37 0.39 0.35 0.30 0.29 0.29 0.28 0.26 0.24 0.25 0.23 0.27 0.25 0.26 0.29 0.30 0.35 0.39 0.41 0.45 0.46 0.43 0.45 0.43 0.48 0.58 0.68 0.77 0.85 0.89 0.85 0.84 0.88 0.91 0.94 0.97 1.04 1.07 1.10 1.11 1.11
0.59 0.58 0.57 0.55 0.50 0.47 0.45 0.44 0.43 0.41 0.42 0.36 0.35 0.36 0.30 0.22 0.18 0.19 0.31 0.27 0.21 0.18 0.29 0.32 0.27 0.32 0.34 0.36 0.38 0.42 0.47 0.47 0.41 0.41 0.44 0.48 0.46 0.45 0.42 0.39 0.37 0.36 0.33 0.29 0.32 0.37 0.39 0.31 0.29 0.28 0.29 0.30 0.31 0.27 0.26 0.23 0.21 0.21 0.22 0.24 0.21 0.25 0.28 0.36 0.39 0.40 0.47 0.46 0.41 0.46 0.50 0.51 0.58 0.67 0.76 0.82 0.87 0.83 0.83 0.83 0.87 0.90 0.95 1.01 1.06 1.06 1.06 1.09
0.59 0.56 0.55 0.55 0.52 0.49 0.46 0.43 0.42 0.41 0.42 0.38 0.36 0.24 0.13 0.17 0.19 0.18 0.25 0.23 0.22 0.21 0.26 0.32 0.37 0.35 0.32 0.34 0.37 0.38 0.40 0.36 0.42 0.41 0.45 0.50 0.48 0.42 0.38 0.34 0.30 0.26 0.30 0.31 0.30 0.36 0.38 0.29 0.28 0.31 0.33 0.32 0.33 0.27 0.25 0.21 0.19 0.17 0.15 0.16 0.21 0.22 0.21 0.32 0.35 0.38 0.49 0.44 0.40 0.50 0.52 0.55 0.62 0.69 0.73 0.82 0.79 0.76 0.79 0.82 0.86 0.90 0.95 1.02 1.04 1.01 1.03 1.09
0.58 0.55 0.55 0.54 0.53 0.49 0.45 0.43 0.41 0.42 0.42 0.38 0.32 0.19 0.32 0.42 0.52 0.50 0.36 0.17 0.19 0.24 0.26 0.29 0.30 0.31 0.37 0.37 0.38 0.38 0.37 0.33 0.31 0.38 0.45 0.44 0.44 0.33 0.36 0.32 0.26 0.22 0.30 0.34 0.33 0.31 0.30 0.29 0.32 0.36 0.36 0.36 0.35 0.26 0.24 0.19 0.15 0.15 0.17 0.20 0.20 0.20 0.24 0.32 0.36 0.39 0.46 0.43 0.43 0.52 0.49 0.55 0.63 0.68 0.78 0.77 0.78 0.79 0.84 0.86 0.88 0.92 0.95 0.99 1.00 0.98 1.03 1.08
0.57 0.55 0.55 0.54 0.51 0.48 0.45 0.44 0.42 0.41 0.36 0.28 0.21 0.31 0.43 0.56 0.61 0.52 0.42 0.31 0.20 0.28 0.26 0.26 0.26 0.30 0.32 0.34 0.33 0.33 0.26 0.23 0.25 0.32 0.38 0.40 0.40 0.35 0.36 0.29 0.25 0.27 0.31 0.32 0.28 0.28 0.25 0.30 0.35 0.36 0.37 0.34 0.28 0.26 0.22 0.16 0.15 0.17 0.17 0.16 0.16 0.19 0.21 0.23 0.33 0.39 0.42 0.42 0.46 0.54 0.49 0.59 0.69 0.76 0.78 0.87 0.87 0.86 0.90 0.93 0.97 1.00 0.99 0.97 0.96 0.96 0.99 1.06
0.54 0.54 0.54 0.53 0.51 0.48 0.47 0.43 0.43 0.36 0.28 0.28 0.32 0.37 0.48 0.55 0.54 0.44 0.35 0.21 0.17 0.24 0.25 0.25 0.25 0.25 0.29 0.28 0.30 0.30 0.25 0.23 0.23 0.24 0.40 0.37 0.33 0.38 0.34 0.29 0.26 0.29 0.28 0.31 0.31 0.28 0.28 0.31 0.33 0.35 0.33 0.32 0.25 0.21 0.16 0.16 0.16 0.16 0.16 0.17 0.17 0.18 0.20 0.21 0.26 0.40 0.39 0.57 0.58 0.53 0.47 0.52 0.64 0.66 0.69 0.83 0.91 0.87 0.88 0.95 0.99 1.03 1.03 1.06 1.03 1.01 1.04 1.05
0.54 0.53 0.53 0.52 0.50 0.48 0.44 0.44 0.29 0.24 0.33 0.38 0.39 0.43 0.46 0.49 0.48 0.42 0.29 0.24 0.22 0.20 0.28 0.26 0.24 0.19 0.31 0.37 0.31 0.27 0.27 0.26 0.25 0.29 0.37 0.36 0.34 0.32 0.30 0.33 0.32 0.27 0.28 0.30 0.30 0.28 0.28 0.30 0.34 0.32 0.29 0.24 0.22 0.18 0.17 0.17 0.15 0.15 0.16 0.18 0.19 0.20 0.20 0.21 0.30 0.35 0.36 0.42 0.53 0.36 0.35 0.41 0.60 0.65 0.68 0.76 0.82 0.79 0.90 0.88 0.92 0.96 0.98 0.98 0.94 0.96 1.04 1.07
0.52 0.52 0.52 0.51 0.49 0.46 0.47 0.26 0.23 0.31 0.38 0.34 0.37 0.41 0.44 0.49 0.46 0.41 0.32 0.21 0.16 0.26 0.22 0.17 0.21 0.17 0.30 0.24 0.27 0.29 0.30 0.23 0.27 0.28 0.33 0.37 0.39 0.35 0.33 0.30 0.32 0.25 0.28 0.27 0.26 0.25 0.24 0.27 0.27 0.25 0.22 0.22 0.20 0.18 0.18 0.17 0.15 0.15 0.16 0.18 0.20 0.20 0.20 0.20 0.21 0.28 0.33 0.29 0.39 0.38 0.25 0.35 0.58 0.57 0.66 0.74 0.77 0.76 0.84 0.87 0.90 0.94 0.93 0.93 0.92 0.94 0.98 1.03
0.51 0.51 0.52 0.51 0.49 0.47 0.28 0.19 0.39 0.44 0.34 0.31 0.43 0.53 0.56 0.54 0.50 0.43 0.28 0.20 0.14 0.23 0.16 0.18 0.16 0.22 0.25 0.25 0.25 0.27 0.18 0.21 0.30 0.30 0.32 0.38 0.33 0.41 0.27 0.28 0.29 0.30 0.30 0.29 0.23 0.20 0.21 0.22 0.21 0.21 0.20 0.18 0.19 0.16 0.16 0.16 0.16 0.17 0.20 0.20 0.19 0.18 0.18 0.18 0.19 0.19 0.18 0.22 0.39 0.41 0.38 0.34 0.41 0.52 0.69 0.75 0.74 0.71 0.75 0.83 0.87 0.90 0.90 0.88 0.90 0.95 1.00 1.05
0.50 0.51 0.51 0.50 0.48 0.45 0.38 0.39 0.33 0.35 0.41 0.53 0.64 0.67 0.62 0.58 0.47 0.43 0.29 0.10 0.11 0.18 0.14 0.13 0.19 0.35 0.26 0.26 0.27 0.28 0.29 0.30 0.22 0.26 0.33 0.36 0.40 0.35 0.31 0.25 0.25 0.26 0.27 0.22 0.16 0.22 0.22 0.18 0.17 0.17 0.17 0.17 0.19 0.15 0.15 0.16 0.15 0.17 0.19 0.19 0.17 0.17 0.16 0.16 0.17 0.18 0.19 0.18 0.29 0.38 0.48 0.37 0.41 0.54 0.72 0.73 0.65 0.64 0.67 0.74 0.78 0.84 0.89 0.86 0.89 0.96 1.01 1.05
0.49 0.50 0.50 0.49 0.47 0.51 0.58 0.40 0.38 0.43 0.60 0.71 0.70 0.66 0.64 0.59 0.46 0.30 0.23 0.13 0.18 0.13 0.22 0.13 0.31 0.31 0.30 0.30 0.28 0.30 0.31 0.29 0.24 0.27 0.34 0.38 0.38 0.37 0.25 0.28 0.27 0.26 0.25 0.22 0.17 0.17 0.19 0.20 0.19 0.19 0.17 0.12 0.15 0.17 0.16 0.15 0.13 0.17 0.18 0.19 0.17 0.20 0.21 0.21 0.19 0.16 0.19 0.21 0.28 0.38 0.40 0.30 0.39 0.52 0.59 0.69 0.63 0.59 0.64 0.72 0.78 0.85 0.87 0.88 0.93 0.99 1.05 1.08
0.49 0.49 0.49 0.48 0.46 0.50 0.48 0.55 0.49 0.66 0.74 0.71 0.65 0.64 0.60 0.48 0.34 0.25 0.18 0.13 0.18 0.13 0.15 0.20 0.25 0.26 0.28 0.24 0.24 0.27 0.26 0.26 0.28 0.31 0.32 0.29 0.30 0.33 0.31 0.32 0.25 0.23 0.20 0.21 0.19 0.17 0.21 0.21 0.22 0.20 0.19 0.20 0.21 0.21 0.21 0.18 0.15 0.21 0.22 0.22 0.22 0.24 0.25 0.26 0.23 0.21 0.20 0.18 0.36 0.41 0.43 0.34 0.31 0.46 0.55 0.58 0.56 0.61 0.68 0.74 0.83 0.89 0.92 0.97 1.01 1.04 1.08 1.06
0.48 0.48 0.47 0.49 0.37 0.51 0.57 0.47 0.59 0.78 0.74 0.65 0.61 0.57 0.48 0.37 0.28 0.22 0.17 0.22 0.21 0.21 0.21 0.17 0.23 0.28 0.22 0.20 0.19 0.24 0.24 0.25 0.25 0.27 0.23 0.25 0.24 0.29 0.27 0.21 0.24 0.20 0.18 0.18 0.16 0.18 0.19 0.20 0.20 0.20 0.23 0.22 0.22 0.21 0.21 0.19 0.21 0.23 0.23 0.22 0.23 0.22 0.24 0.24 0.23 0.25 0.19 0.21 0.33 0.47 0.45 0.42 0.28 0.45 0.59 0.67 0.70 0.73 0.74 0.72 0.81 0.82 0.89 0.98 1.05 1.13 1.14 1.15
0.47 0.46 0.49 0.51 0.57 0.70 0.54 0.53 0.71 0.76 0.66 0.59 0.56 0.50 0.43 0.27 0.30 0.20 0.20 0.32 0.22 0.20 0.19 0.16 0.24 0.24 0.20 0.22 0.21 0.22 0.21 0.23 0.23 0.21 0.20 0.18 0.20 0.20 0.20 0.16 0.15 0.12 0.12 0.14 0.14 0.17 0.19 0.20 0.22 0.21 0.23 0.22 0.24 0.24 0.24 0.24 0.24 0.23 0.23 0.22 0.19 0.18 0.19 0.17 0.20 0.18 0.21 0.26 0.41 0.49 0.46 0.40 0.43 0.53 0.62 0.66 0.72 0.77 0.83 0.86 0.87 0.89 0.92 0.99 1.02 1.04 1.10 1.13
0.45 0.47 0.55 0.59 0.65 0.67 0.74 0.74 0.72 0.66 0.59 0.57 0.58 0.52 0.36 0.26 0.20 0.28 0.28 0.29 0.22 0.27 0.23 0.24 0.21 0.23 0.19 0.18 0.19 0.22 0.25 0.19 0.21 0.20 0.20 0.16 0.16 0.16 0.19 0.16 0.17 0.14 0.10 0.14 0.16 0.15 0.19 0.22 0.24 0.20 0.22 0.23 0.23 0.22 0.26 0.26 0.27 0.25 0.23 0.23 0.20 0.18 0.17 0.16 0.18 0.25 0.27 0.36 0.49 0.49 0.48 0.41 0.55 0.61 0.71 0.70 0.78 0.85 0.88 0.92 0.95 0.93 0.92 0.94 0.98 1.02 1.04 1.07
0.45 0.51 0.52 0.60 0.64 0.69 0.70 0.70 0.67 0.66 0.54 0.55 0.58 0.44 0.38 0.26 0.23 0.39 0.32 0.30 0.28 0.28 0.25 0.21 0.21 0.21 0.17 0.15 0.18 0.21 0.19 0.22 0.23 0.20 0.16 0.13 0.12 0.12 0.13 0.14 0.18 0.17 0.15 0.18 0.16 0.18 0.17 0.17 0.19 0.20 0.20 0.25 0.24 0.24 0.28 0.28 0.26 0.26 0.27 0.25 0.24 0.21 0.18 0.16 0.17 0.19 0.25 0.34 0.42 0.48 0.37 0.38 0.41 0.51 0.76 0.77 0.85 0.91 0.95 0.97 1.00 1.01 1.02 1.03 1.04 1.06 1.08 1.08
0.47 0.51 0.54 0.57 0.59 0.60 0.57 0.57 0.63 0.64 0.54 0.56 0.48 0.40 0.29 0.29 0.35 0.31 0.31 0.30 0.30 0.27 0.22 0.22 0.17 0.16 0.16 0.18 0.20 0.23 0.24 0.20 0.24 0.21 0.15 0.13 0.11 0.12 0.15 0.15 0.19 0.19 0.17 0.13 0.19 0.20 0.20 0.18 0.20 0.24 0.29 0.29 0.27 0.31 0.33 0.32 0.28 0.30 0.31 0.29 0.24 0.22 0.26 0.20 0.23 0.26 0.30 0.32 0.33 0.36 0.39 0.51 0.52 0.73 0.83 0.90 0.92 0.96 0.99 0.99 1.02 1.03 1.07 1.07 1.06 1.07 1.09 1.11
0.43 0.43 0.52 0.43 0.46 0.46 0.50 0.57 0.60 0.60 0.57 0.55 0.47 0.38 0.36 0.39 0.33 0.39 0.32 0.36 0.28 0.21 0.19 0.20 0.18 0.16 0.17 0.17 0.19 0.19 0.24 0.22 0.23 0.21 0.16 0.18 0.18 0.16 0.19 0.20 0.19 0.20 0.18 0.14 0.17 0.17 0.21 0.20 0.25 0.27 0.32 0.30 0.32 0.34 0.38 0.36 0.25 0.28 0.27 0.24 0.24 0.29 0.28 0.30 0.33 0.38 0.39 0.33 0.30 0.44 0.45 0.56 0.70 0.75 0.82 0.89 0.89 0.93 0.98 0.99 1.01 1.04 1.07 1.09 1.09 1.14 1.16 1.19
0.37 0.44 0.35 0.38 0.42 0.45 0.55 0.60 0.63 0.60 0.62 0.55 0.42 0.33 0.43 0.45 0.47 0.42 0.37 0.30 0.22 0.19 0.18 0.15 0.15 0.17 0.16 0.15 0.16 0.16 0.19 0.22 0.22 0.19 0.14 0.18 0.16 0.19 0.19 0.20 0.23 0.21 0.22 0.19 0.20 0.22 0.19 0.21 0.28 0.30 0.34 0.38 0.39 0.38 0.39 0.40 0.38 0.31 0.24 0.28 0.32 0.35 0.34 0.29 0.27 0.33 0.32 0.28 0.34 0.46 0.41 0.45 0.48 0.44 0.79 0.82 0.82 0.89 0.92 0.99 1.06 1.09 1.11 1.07 1.11 1.15 1.20 1.25
0.40 0.41 0.42 0.39 0.40 0.48 0.58 0.65 0.69 0.66 0.61 0.50 0.40 0.44 0.56 0.43 0.48 0.44 0.41 0.24 0.18 0.19 0.17 0.18 0.18 0.20 0.16 0.17 0.16 0.17 0.18 0.19 0.22 0.17 0.16 0.17 0.17 0.26 0.23 0.23 0.24 0.23 0.24 0.28 0.24 0.24 0.24 0.20 0.28 0.35 0.34 0.39 0.44 0.40 0.38 0.44 0.45 0.36 0.34 0.41 0.32 0.31 0.32 0.36 0.32 0.28 0.29 0.29 0.33 0.45 0.50 0.50 0.51 0.53 0.73 0.76 0.81 0.89 0.95 1.02 1.04 1.05 1.08 1.10 1.15 1.19 1.24 1.30
0.45 0.41 0.26 0.33 0.47 0.54 0.62 0.73 0.74 0.64 0.54 0.43 0.41 0.40 0.47 0.45 0.44 0.41 0.40 0.26 0.24 0.19 0.18 0.20 0.19 0.20 0.20 0.19 0.19 0.19 0.18 0.18 0.21 0.18 0.16 0.17 0.18 0.28 0.29 0.26 0.27 0.36 0.35 0.32 0.28 0.26 0.25 0.21 0.27 0.40 0.39 0.41 0.40 0.38 0.32 0.37 0.46 0.45 0.43 0.41 0.41 0.39 0.35 0.33 0.36 0.36 0.35 0.34 0.36 0.40 0.47 0.43 0.64 0.68 0.78 0.79 0.88 0.92 0.98 1.03 1.05 1.10 1.14 1.16 1.19 1.22 1.24 1.25
0.44 0.45 0.40 0.59 0.57 0.62 0.73 0.76 0.69 0.60 0.48 0.38 0.39 0.42 0.48 0.39 0.37 0.39 0.36 0.26 0.20 0.19 0.18 0.20 0.21 0.21 0.21 0.20 0.22 0.20 0.20 0.18 0.18 0.19 0.18 0.20 0.21 0.32 0.33 0.33 0.32 0.34 0.35 0.35 0.31 0.29 0.23 0.28 0.26 0.36 0.45 0.39 0.33 0.39 0.37 0.38 0.39 0.41 0.38 0.39 0.40 0.40 0.43 0.44 0.43 0.39 0.35 0.34 0.36 0.38 0.37 0.48 0.70 0.88 0.85 0.89 0.94 0.98 1.01 1.02 1.09 1.14 1.18 1.20 1.21 1.22 1.23 1.26
0.52 0.43 0.44 0.65 0.63 0.73 0.79 0.73 0.55 0.46 0.44 0.48 0.49 0.43 0.44 0.40 0.36 0.36 0.30 0.33 0.27 0.23 0.25 0.28 0.27 0.22 0.23 0.21 0.22 0.24 0.21 0.22 0.20 0.19 0.18 0.20 0.26 0.25 0.35 0.36 0.37 0.33 0.36 0.36 0.34 0.33 0.31 0.27 0.26 0.33 0.36 0.35 0.37 0.44 0.46 0.45 0.47 0.47 0.42 0.40 0.41 0.38 0.35 0.31 0.33 0.43 0.42 0.37 0.36 0.34 0.34 0.50 0.77 1.00 0.96 0.94 1.00 1.02 1.06 1.04 1.06 1.10 1.14 1.18 1.22 1.25 1.27 1.25
0.47 0.42 0.50 0.74 0.69 0.73 0.63 0.48 0.47 0.52 0.48 0.42 0.40 0.46 0.41 0.50 0.40 0.35 0.34 0.36 0.31 0.28 0.31 0.29 0.30 0.29 0.27 0.29 0.30 0.27 0.23 0.22 0.22 0.21 0.20 0.20 0.28 0.31 0.36 0.40 0.39 0.39 0.35 0.32 0.35 0.40 0.37 0.34 0.29 0.29 0.33 0.38 0.42 0.45 0.51 0.50 0.51 0.52 0.51 0.46 0.46 0.45 0.42 0.37 0.30 0.38 0.40 0.43 0.45 0.44 0.38 0.49 0.89 1.01 1.03 1.00 1.01 1.04 1.08 1.10 1.08 1.10 1.10 1.14 1.17 1.21 1.24 1.26
0.49 0.52 0.76 0.84 0.71 0.67 0.50 0.40 0.46 0.44 0.43 0.46 0.49 0.44 0.46 0.43 0.39 0.33 0.31 0.35 0.30 0.35 0.36 0.32 0.32 0.32 0.36 0.37 0.33 0.30 0.29 0.30 0.29 0.26 0.28 0.28 0.31 0.36 0.38 0.39 0.40 0.39 0.42 0.39 0.40 0.44 0.48 0.38 0.32 0.32 0.38 0.44 0.47 0.49 0.50 0.52 0.49 0.47 0.52 0.53 0.50 0.47 0.48 0.44 0.41 0.43 0.39 0.43 0.40 0.43 0.38 0.53 0.87 1.07 1.06 1.04 1.06 1.09 1.11 1.11 1.04 1.04 1.06 1.09 1.09 1.14 1.18 1.19
0.59 0.63 0.65 0.82 0.83 0.72 0.45 0.36 0.38 0.41 0.44 0.50 0.53 0.47 0.48 0.48 0.35 0.31 0.32 0.37 0.37 0.37 0.37 0.38 0.37 0.38 0.36 0.39 0.37 0.31 0.36 0.31 0.34 0.31 0.29 0.33 0.34 0.40 0.41 0.42 0.43 0.39 0.39 0.41 0.38 0.45 0.36 0.43 0.35 0.30 0.28 0.31 0.35 0.40 0.42 0.49 0.49 0.47 0.47 0.52 0.51 0.52 0.51 0.52 0.49 0.49 0.41 0.44 0.43 0.38 0.33 0.49 0.82 0.99 1.00 0.99 0.99 1.01 1.03 1.07 1.06 0.99 1.03 1.06 1.08 1.12 1.15 1.15
0.66 0.70 0.72 0.72 0.80 0.68 0.50 0.49 0.48 0.47 0.45 0.45 0.44 0.41 0.41 0.36 0.40 0.39 0.37 0.39 0.40 0.42 0.40 0.39 0.40 0.42 0.39 0.39 0.40 0.38 0.36 0.39 0.35 0.38 0.38 0.38 0.39 0.46 0.48 0.44 0.43 0.41 0.42 0.44 0.44 0.47 0.38 0.39 0.36 0.28 0.25 0.24 0.27 0.29 0.33 0.38 0.44 0.47 0.52 0.53 0.54 0.53 0.52 0.50 0.44 0.46 0.39 0.44 0.45 0.40 0.43 0.64 0.81 0.91 0.90 0.91 0.92 0.93 1.01 1.04 1.06 1.06 1.02 1.02 1.04 1.08 1.08 1.07
0.61 0.50 0.59 0.66 0.69 0.65 0.60 0.62 0.56 0.50 0.44 0.43 0.42 0.42 0.40 0.38 0.41 0.44 0.42 0.40 0.41 0.41 0.43 0.43 0.45 0.45 0.42 0.40 0.40 0.40 0.37 0.44 0.43 0.42 0.44 0.40 0.43 0.47 0.48 0.50 0.47 0.44 0.45 0.46 0.44 0.41 0.36 0.37 0.36 0.35 0.33 0.32 0.35 0.39 0.47 0.46 0.43 0.40 0.45 0.49 0.51 0.52 0.53 0.52 0.50 0.45 0.39 0.44 0.43 0.50 0.53 0.58 0.66 0.76 0.79 0.81 0.85 0.86 0.90 0.97 0.99 1.01 1.04 1.04 1.03 1.01 1.01 1.01
0.59 0.50 0.49 0.49 0.58 0.56 0.54 0.57 0.54 0.53 0.46 0.49 0.42 0.41 0.37 0.37 0.37 0.42 0.43 0.40 0.41 0.42 0.42 0.43 0.43 0.39 0.40 0.40 0.41 0.42 0.43 0.42 0.46 0.45 0.44 0.44 0.47 0.48 0.49 0.47 0.49 0.53 0.55 0.48 0.47 0.40 0.36 0.32 0.36 0.34 0.35 0.37 0.40 0.40 0.44 0.44 0.39 0.40 0.39 0.42 0.45 0.46 0.47 0.45 0.42 0.40 0.48 0.44 0.41 0.59 0.65 0.54 0.63 0.73 0.77 0.80 0.83 0.86 0.91 0.94 0.99 1.04 1.04 1.03 1.03 1.02 1.00 0.98
0.54 0.59 0.70 0.70 0.52 0.44 0.46 0.49 0.55 0.52 0.51 0.52 0.47 0.45 0.39 0.38 0.36 0.36 0.41 0.42 0.45 0.42 0.42 0.43 0.45 0.43 0.43 0.42 0.43 0.41 0.43 0.41 0.41 0.41 0.46 0.46 0.45 0.47 0.44 0.48 0.47 0.49 0.51 0.51 0.51 0.40 0.35 0.31 0.40 0.36 0.38 0.39 0.41 0.42 0.43 0.42 0.41 0.40 0.42 0.45 0.44 0.45 0.44 0.41 0.44 0.45 0.46 0.40 0.39 0.59 0.66 0.58 0.65 0.74 0.79 0.83 0.86 0.86 0.89 0.95 1.00 1.05 1.09 1.07 1.04 0.97 0.94 0.95
0.69 0.67 0.73 0.74 0.59 0.60 0.60 0.58 0.55 0.51 0.50 0.52 0.48 0.42 0.41 0.41 0.39 0.42 0.42 0.42 0.43 0.42 0.46 0.39 0.42 0.44 0.44 0.46 0.42 0.41 0.44 0.37 0.38 0.44 0.44 0.45 0.44 0.45 0.42 0.43 0.49 0.51 0.49 0.47 0.47 0.48 0.42 0.36 0.38 0.38 0.36 0.37 0.38 0.39 0.42 0.40 0.40 0.43 0.43 0.47 0.50 0.47 0.49 0.48 0.49 0.48 0.44 0.46 0.55 0.59 0.63 0.62 0.72 0.78 0.83 0.86 0.93 0.91 0.92 0.97 1.00 1.05 1.06 1.06 1.01 0.96 0.96 0.98
0.62 0.62 0.53 0.65 0.71 0.67 0.63 0.59 0.56 0.54 0.48 0.49 0.44 0.44 0.47 0.45 0.42 0.45 0.45 0.44 0.39 0.41 0.46 0.43 0.44 0.45 0.45 0.44 0.43 0.40 0.44 0.45 0.46 0.43 0.46 0.44 0.46 0.45 0.45 0.45 0.45 0.50 0.49 0.46 0.46 0.48 0.40 0.37 0.42 0.40 0.36 0.36 0.38 0.40 0.39 0.38 0.40 0.42 0.46 0.49 0.51 0.51 0.53 0.58 0.55 0.57 0.58 0.60 0.65 0.64 0.61 0.62 0.83 0.90 0.89 0.93 0.91 0.94 0.96 0.97 1.00 1.05 1.07 1.02 0.97 0.96 0.98 0.97
0.82 0.83 0.67 0.63 0.56 0.60 0.61 0.61 0.58 0.54 0.49 0.47 0.47 0.48 0.52 0.49 0.48 0.50 0.49 0.49 0.45 0.43 0.44 0.43 0.45 0.45 0.45 0.43 0.43 0.44 0.48 0.48 0.49 0.49 0.51 0.49 0.43 0.47 0.43 0.45 0.48 0.45 0.46 0.44 0.44 0.43 0.42 0.37 0.40 0.38 0.32 0.32 0.35 0.32 0.30 0.31 0.38 0.42 0.46 0.52 0.54 0.53 0.52 0.58 0.56 0.65 0.58 0.58 0.65 0.64 0.59 0.63 0.80 0.89 0.91 0.92 0.93 0.94 0.95 0.96 0.96 0.96 1.00 0.98 0.96 0.96 0.96 0.94
0.84 0.79 0.85 0.80 0.60 0.69 0.62 0.62 0.60 0.53 0.47 0.50 0.52 0.52 0.53 0.52 0.54 0.53 0.49 0.53 0.52 0.49 0.48 0.47 0.48 0.45 0.42 0.41 0.41 0.44 0.47 0.46 0.47 0.50 0.51 0.51 0.51 0.49 0.44 0.40 0.38 0.35 0.33 0.36 0.40 0.37 0.39 0.36 0.33 0.32 0.27 0.27 0.30 0.29 0.26 0.24 0.28 0.31 0.44 0.55 0.61 0.61 0.66 0.72 0.74 0.76 0.74 0.72 0.63 0.57 0.60 0.78 0.85 0.91 0.88 0.92 0.95 0.98 0.99 0.98 0.98 1.02 1.05 1.02 0.99 0.93 0.95 0.93
Wind_Speed
15 14 14 14 13 12 12 12 11 10 9 9 8 8 7 7 6 6 5 5 5 4 4 4 4 4 5 5 5 5 5 6 6 7 7 7 8 8 6 5 4 3 3 4 6 7 8 8 8 9 10 7 5 3 2 3 3 6 6 8 10 10 10 10 10 10 11 10 9 8 6 6 7 6 7 8 7 6 5 5 4 3 3 4 6 7 7 8
16 15 15 15 14 13 12 12 12 11 10 10 9 8 8 7 7 6 6 5 5 5 4 4 4 4 4 5 5 5 5 7 7 7 8 8 8 8 6 5 4 3 2 3 6 7 7 8 9 10 9 7 4 3 4 4 5 6 6 8 8 8 9 10 10 11 11 10 9 8 7 7 7 6 7 7 6 7 6 5 4 4 4 5 6 7 7 8
16 16 16 15 15 15 14 13 12 12 12 10 10 9 8 8 7 7 6 6 5 5 5 4 4 4 4 5 6 5 6 7 7 8 8 9 9 8 7 5 5 3 2 2 5 5 6 8 10 10 8 7 4 3 3 5 6 5 7 9 7 7 10 10 10 10 11 11 10 9 9 8 7 7 7 7 7 7 5 4 4 4 4 5 5 6 7 7
16 17 16 16 16 15 15 14 13 13 12 11 10 10 9 8 8 7 7 6 6 5 5 5 4 4 4 5 6 6 7 7 8 9 8 9 9 8 7 7 5 3 1 2 4 5 6 8 10 9 7 6 5 4 3 6 6 5 7 8 6 8 11 9 9 10 10 11 11 10 10 9 8 7 8 8 8 7 5 4 4 4 4 4 5 6 6 6
17 17 17 17 16 16 16 15 14 13 13 12 11 11 10 9 8 8 7 6 6 5 5 5 5 4 4 5 6 8 8 8 9 9 8 9 8 8 8 7 6 4 2 2 4 5 6 8 8 8 7 6 7 6 4 6 6 5 6 6 7 8 10 9 9 10 10 11 12 11 11 10 8 8 8 8 8 7 5 5 4 4 4 4 4 5 6 5
17 17 17 17 17 16 16 16 15 14 13 13 12 12 10 9 9 8 7 7 6 6 5 5 5 4 4 5 7 9 9 9 9 9 9 9 8 8 8 7 6 4 2 2 4 5 6 7 7 7 7 7 7 6 5 7 7 5 4 5 7 7 8 9 10 10 9 10 11 11 10 10 9 9 8 7 7 7 7 7 6 5 5 4 3 4 5 4
18 18 18 18 18 17 17 17 16 15 14 14 13 12 11 10 9 8 8 7 6 6 6 5 5 5 4 5 8 9 9 9 10 9 9 9 8 8 8 8 6 5 3 2 4 4 6 7 7 6 6 6 7 6 4 5 6 6 4 4 5 6 8 10 10 10 9 10 10 11 11 10 10 9 8 7 7 7 8 8 7 6 5 4 3 4 4 3
18 18 18 18 18 18 17 17 17 16 15 14 14 13 12 11 9 9 8 8 7 6 6 6 6 5 4 6 9 9 9 9 10 10 10 9 8 8 8 8 7 6 3 3 3 3 5 6 6 7 7 6 7 7 4 4 4 5 4 4 4 5 7 9 9 9 10 10 11 12 11 10 9 9 8 7 7 7 8 8 8 7 5 4 3 3 3 3
18 19 19 19 19 18 18 18 17 17 16 15 14 14 13 12 10 9 8 8 7 6 6 6 6 6 5 7 9 9 9 9 9 10 10 9 9 9 9 8 7 6 3 3 3 3 3 5 6 8 7 6 7 7 6 4 2 2 3 4 4 5 7 7 8 8 9 10 11 12 12 10 9 10 9 7 7 7 7 7 7 6 5 3 3 2 2 2
18 18 19 19 19 19 19 18 18 18 17 16 15 14 14 13 11 10 9 8 8 7 6 6 6 6 6 8 8 9 10 9 8 9 10 9 10 9 9 8 7 5 3 3 3 2 2 4 6 7 6 6 7 6 5 4 2 2 3 3 4 4 5 6 6 6 7 9 9 11 12 10 8 9 10 7 7 7 7 6 6 6 5 3 3 2 1 1
18 18 19 19 19 19 19 19 18 18 17 16 15 14 14 13 12 11 10 9 8 7 7 6 6 6 7 8 8 9 10 8 8 9 10 10 10 10 9 9 7 5 3 2 3 2 2 3 5 6 5 6 7 6 4 4 5 3 3 3 4 4 4 4 4 4 7 8 7 9 12 11 9 9 8 6 6 7 7 6 5 5 5 4 3 3 2 1
18 18 18 19 19 19 19 19 19 18 18 17 16 15 14 14 13 12 11 10 9 8 7 7 6 7 8 9 10 11 9 8 8 9 10 10 11 10 9 8 7 5 4 3 3 2 2 4 5 5 4 6 7 5 4 5 6 3 2 2 2 3 3 2 3 4 6 8 6 8 12 11 10 8 6 5 6 7 7 6 5 4 4 5 4 3 3 1
18 18 18 19 19 19 19 19 19 19 18 18 17 15 15 15 14 13 12 10 9 8 7 7 7 8 9 9 11 11 9 7 8 10 11 10 11 10 9 9 7 6 5 4 3 2 1 3 4 4 4 5 5 4 5 7 6 2 0 1 1 2 3 2 3 4 5 6 4 7 10 9 9 7 4 5 5 7 7 6 5 4 4 5 5 4 3 2
17 18 18 19 19 19 19 19 19 19 18 18 17 16 15 15 14 14 12 11 10 9 7 7 7 8 10 10 11 10 8 7 8 10 11 11 11 10 9 9 7 6 5 4 4 3 2 3 3 3 4 4 4 5 6 6 6 3 2 3 3 1 3 4 4 4 5 5 3 7 9 8 8 6 3 4 5 6 7 6 6 5 5 5 5 5 4 3
17 18 18 18 19 19 19 19 19 19 19 18 18 17 16 15 14 14 13 12 11 9 8 7 8 9 10 10 10 9 8 7 8 11 12 12 12 10 10 9 8 7 5 4 5 4 3 3 2 2 4 5 5 6 6 6 6 4 1 3 4 2 1 4 4 2 3 5 4 7 8 8 7 3 2 4 4 6 6 6 6 5 5 5 5 5 5 3
17 18 18 18 18 19 19 19 19 19 19 18 18 18 17 16 15 14 14 13 12 10 8 7 8 9 9 10 9 8 8 8 9 11 12 13 13 11 9 9 8 7 6 5 4 4 4 3 2 3 4 6 6 6 6 6 6 6 4 0 2 1 0 3 5 3 3 5 5 6 7 8 7 3 2 4 4 6 7 6 6 5 5 5 5 5 5 4
17 18 18 18 18 19 19 19 19 19 19 19 18 18 17 16 15 14 14 14 12 10 9 8 8 9 8 8 7 7 8 8 8 10 12 13 13 11 9 9 8 7 6 5 5 4 3 3 2 3 4 5 5 5 5 5 5 6 5 3 1 2 1 3 5 5 4 5 5 5 6 8 7 3 2 3 3 6 7 6 6 6 6 5 5 4 4 4
16 17 18 18 18 18 18 18 18 18 19 18 18 18 18 17 15 14 14 14 13 11 10 10 9 9 8 8 7 7 7 8 8 10 11 12 13 11 10 9 9 8 6 5 4 4 3 2 1 3 4 5 5 4 4 4 4 5 4 3 2 1 1 4 5 4 3 4 4 4 6 8 6 3 2 3 3 5 6 6 6 6 6 5 4 4 4 4
16 17 18 18 18 18 18 18 18 18 18 18 18 18 17 16 15 15 14 14 13 12 11 11 11 10 8 8 8 7 7 8 9 10 11 12 12 11 9 8 9 8 6 4 4 3 3 2 1 3 4 5 5 3 3 4 4 4 3 2 1 2 4 5 5 4 2 3 4 3 5 5 3 2 2 3 3 4 5 6 6 7 7 5 5 4 4 4
16 16 17 18 18 17 18 18 18 18 17 17 17 17 16 16 15 15 14 14 14 13 11 11 12 10 8 7 7 7 6 7 8 10 11 12 11 10 8 7 8 7 6 6 5 3 2 2 2 3 4 4 4 4 4 4 4 3 4 3 2 2 5 6 5 5 2 3 5 4 4 4 2 2 4 3 3 4 4 6 7 7 7 6 5 4 4 4
16 16 17 17 18 17 18 18 18 18 18 17 17 16 17 16 15 14 13 14 15 15 14 12 12 11 10 9 8 8 7 7 8 9 11 12 11 9 7 7 7 7 7 7 5 3 2 3 3 4 5 5 5 5 5 6 5 3 3 3 3 3 6 6 5 5 3 3 6 4 4 4 4 4 5 4 3 4 4 5 6 7 7 7 5 5 5 5
16 17 17 17 18 17 18 18 18 18 18 17 17 17 17 15 14 13 12 13 14 15 16 14 12 12 11 11 11 10 9 8 9 10 11 12 12 10 8 7 8 8 6 6 5 3 3 4 6 6 7 6 5 5 6 6 3 2 3 3 5 6 7 7 5 4 3 3 4 3 4 5 5 5 5 5 5 5 5 5 6 6 6 6 6 6 6 6
17 17 17 18 18 17 18 18 18 18 18 18 18 18 16 14 13 12 12 13 13 14 15 14 13 12 11 10 10 10 10 9 10 11 12 12 13 12 9 8 9 9 7 6 6 5 5 6 7 7 7 6 6 6 6 5 2 2 4 5 6 6 5 6 4 2 4 2 0 2 3 4 5 5 5 6 6 6 6 6 6 6 6 6 5 6 6 6
17 17 18 18 18 18 18 18 18 18 18 19 19 18 15 13 12 11 11 13 13 13 15 16 14 13 11 10 9 9 9 9 9 11 13 12 12 12 10 9 9 8 7 7 7 6 7 8 7 6 6 5 5 6 4 2 2 3 4 4 5 6 4 3 2 1 3 2 2 3 4 4 4 4 4 5 5 7 7 6 7 7 7 6 6 7 7 6
17 18 18 18 18 18 18 18 18 18 19 19 19 17 15 13 12 11 11 12 12 12 14 15 14 13 13 11 9 10 9 9 9 11 12 13 13 11 10 9 9 8 7 6 6 7 8 8 8 7 6 3 3 4 1 1 3 5 4 4 4 4 4 3 2 1 2 1 4 1 4 5 4 3 2 3 5 7 7 6 6 7 7 7 7 8 8 7
17 18 19 19 19 19 19 18 18 19 20 19 18 16 15 14 12 12 11 10 11 12 12 13 12 12 13 11 10 9 7 8 10 11 11 13 14 12 9 9 9 8 7 6 5 6 6 6 7 6 6 4 3 3 3 2 4 5 5 6 6 4 4 3 1 1 2 3 7 5 3 4 4 2 1 2 4 6 7 6 6 7 7 7 7 8 8 8
17 18 19 19 20 20 19 19 19 20 20 18 16 15 14 14 13 12 11 8 10 12 12 12 11 11 11 11 11 9 7 8 9 10 11 13 14 12 10 9 8 8 6 4 5 5 4 5 6 4 3 4 3 3 4 3 3 6 7 7 7 7 7 6 4 4 5 4 7 7 3 2 3 2 0 2 3 5 6 6 6 5 6 6 6 8 8 8
17 19 20 20 21 21 19 19 20 21 19 15 14 14 14 14 14 12 10 8 9 11 12 12 11 11 11 11 12 10 8 7 7 9 11 12 12 11 10 10 9 8 6 5 6 6 3 4 5 3 2 4 5 5 5 4 5 8 9 7 8 7 6 5 4 5 6 4 4 5 2 1 3 3 1 2 2 3 4 4 5 4 5 6 6 7 7 7
18 19 20 21 21 21 19 19 20 19 16 14 13 13 13 14 14 11 9 8 10 10 11 12 11 11 11 11 12 10 7 6 7 10 11 11 12 11 10 10 9 8 7 7 8 7 4 6 6 4 3 4 5 6 6 6 7 8 7 6 6 5 5 4 3 5 5 3 5 7 4 2 4 4 2 1 2 3 3 4 4 3 4 6 6 6 7 7
18 20 21 21 21 20 19 19 19 17 15 14 13 14 14 14 12 10 8 9 10 10 10 11 11 11 11 11 10 10 8 5 6 9 9 9 11 11 9 8 8 8 7 7 8 8 7 8 7 5 5 5 5 6 7 7 6 5 5 5 5 6 6 6 4 4 4 4 7 8 5 2 3 6 4 3 3 3 3 4 4 4 5 6 6 6 6 7
19 20 21 22 21 20 19 19 18 16 15 14 14 14 14 13 11 9 9 9 9 9 10 11 10 10 11 11 10 9 8 6 6 8 7 8 9 10 9 6 6 7 6 6 6 6 6 7 7 6 5 5 4 5 5 3 3 4 4 5 7 8 6 6 5 3 3 4 5 6 4 0 3 6 6 4 4 3 2 3 3 4 5 6 6 6 6 6
19 20 22 22 21 20 20 19 17 16 15 15 15 15 14 11 9 9 9 8 8 9 10 11 10 10 11 11 10 9 8 8 7 7 7 8 9 11 9 7 7 6 6 7 6 6 7 7 7 7 6 5 2 3 4 4 4 4 5 6 7 7 6 5 5 2 1 2 4 4 2 2 2 4 4 4 3 2 3 3 2 2 4 5 5 6 6 7
19 20 21 21 20 20 19 18 16 15 15 16 15 14 13 10 8 9 9 8 7 8 10 10 10 11 11 11 10 9 9 8 7 6 8 8 8 10 10 8 8 6 6 6 5 6 7 8 6 5 6 5 3 3 4 6 5 4 3 4 4 4 4 5 4 1 1 3 4 3 1 2 2 2 2 1 1 2 2 2 1 2 3 5 5 6 7 7
19 20 20 20 19 19 18 17 17 16 14 15 15 14 12 10 8 9 9 8 8 8 9 10 11 11 12 11 10 10 9 8 7 6 7 7 7 9 9 8 8 7 6 5 5 6 6 7 4 3 4 4 4 4 4 5 5 3 3 2 3 4 3 4 4 2 2 3 3 3 2 2 3 2 2 1 1 2 1 1 2 3 4 5 6 7 7 8
18 19 18 18 18 18 18 18 18 16 15 14 14 13 11 9 8 8 8 8 8 8 9 10 11 11 11 10 9 9 8 7 7 6 7 8 8 8 8 7 7 6 6 5 6 5 3 4 2 2 3 2 3 5 4 4 4 5 4 2 5 5 2 1 1 2 3 2 3 3 2 3 3 2 3 2 2 3 3 3 3 4 6 6 7 8 8 9
18 18 17 18 18 18 19 19 18 17 16 15 14 13 11 9 8 7 7 7 8 10 11 11 10 10 10 9 8 9 9 8 8 7 7 8 8 8 7 7 7 7 6 6 5 4 2 2 3 3 4 4 4 4 4 4 4 4 3 3 5 3 0 1 1 1 1 1 3 2 1 2 2 2 4 3 2 4 4 4 5 5 6 7 9 9 10 10
17 17 17 17 19 20 21 20 19 18 16 15 13 11 9 7 7 7 6 8 9 11 11 10 10 10 10 9 9 10 9 8 8 8 8 7 6 7 7 7 8 7 7 6 5 5 3 3 5 4 4 4 4 2 4 4 2 2 3 5 5 2 1 0 1 2 2 1 3 3 2 3 3 3 4 4 3 4 5 5 5 6 7 8 9 9 10 10
17 17 16 17 20 22 22 21 19 18 15 13 11 9 7 6 7 8 7 8 9 10 10 9 9 9 10 9 8 9 9 8 8 8 8 7 5 5 5 5 6 7 8 7 6 6 5 4 6 4 3 4 3 2 4 6 3 1 3 4 3 2 3 3 1 2 3 2 4 4 4 5 5 5 5 5 5 5 6 6 6 7 8 8 8 9 10 10
16 16 16 19 22 23 22 21 19 17 14 11 10 8 7 6 7 7 7 8 9 9 8 8 8 7 8 8 7 8 8 8 9 8 8 8 6 4 4 5 5 5 5 5 5 6 5 5 5 6 4 5 4 3 3 6 5 3 3 4 3 2 3 2 2 2 2 3 4 5 6 7 8 7 6 6 6 6 6 6 7 8 8 8 9 9 10 10
16 17 17 20 23 23 22 21 18 15 12 10 9 8 6 7 6 6 7 8 8 9 8 7 7 6 7 8 8 8 7 8 9 8 7 8 7 5 4 5 5 5 3 3 4 6 6 6 6 7 7 5 5 4 3 4 4 3 4 5 5 4 3 2 2 3 2 3 4 4 6 8 8 8 6 6 6 6 6 7 8 8 9 9 10 10 10 10
18 19 18 21 24 24 22 19 15 13 11 9 8 7 6 7 6 5 5 6 7 9 7 6 6 6 7 8 7 8 8 8 7 7 7 7 7 7 6 6 6 6 5 4 4 5 6 7 7 6 6 5 5 6 4 2 2 2 4 5 4 5 4 3 4 6 4 4 4 5 7 9 9 8 7 6 7 7 7 7 8 8 8 9 10 10 10 10
19 19 19 21 24 23 20 16 13 12 10 8 7 6 6 6 7 6 4 4 6 8 5 5 6 5 6 7 6 7 8 7 6 6 8 8 7 7 7 6 5 5 6 6 5 5 5 6 6 6 6 5 7 8 6 5 4 4 5 6 5 5 5 4 7 8 6 6 6 5 6 8 9 8 8 7 7 7 7 6 7 8 8 9 9 9 10 9
19 18 18 21 23 21 18 14 11 10 8 7 6 5 5 6 7 7 4 4 6 6 4 5 6 4 5 5 4 6 6 5 4 5 7 6 5 5 5 4 3 5 6 7 7 7 6 4 5 7 8 8 8 8 7 7 7 6 7 7 6 7 6 6 8 8 7 7 6 5 7 8 9 9 8 8 7 7 7 7 7 8 8 9 9 9 9 9
18 17 18 21 21 19 16 13 11 9 7 6 5 4 5 6 7 7 6 5 6 7 5 5 5 5 5 4 4 6 6 4 3 4 5 5 4 4 2 1 3 5 6 7 7 7 7 7 6 6 7 8 8 8 8 8 7 6 8 8 8 9 8 8 8 8 8 9 7 6 8 9 9 9 8 8 7 7 7 7 7 7 8 8 8 8 9 8
16 16 17 19 19 17 14 12 10 8 6 5 4 3 5 7 7 7 7 6 7 7 5 4 4 5 5 4 4 5 5 5 4 3 3 4 4 3 2 1 2 4 6 7 7 6 7 7 6 5 6 6 6 7 7 8 8 7 8 9 9 10 10 9 8 8 9 10 8 7 8 9 10 9 8 8 8 7 8 8 8 8 8 8 9 9 9 9
16 15 15 16 16 15 13 10 8 7 6 5 4 4 5 7 7 5 5 5 5 4 4 3 3 4 5 4 4 4 4 4 4 3 3 4 4 4 3 2 2 3 5 7 7 6 6 7 6 6 7 7 7 7 8 7 8 9 10 10 11 11 12 11 9 10 11 9 8 9 8 7 9 9 8 9 9 9 9 9 9 9 9 9 9 10 10 11
16 15 14 14 14 13 11 9 7 8 7 6 5 5 4 5 5 4 4 4 3 3 4 2 2 4 6 6 5 4 4 4 4 4 3 3 4 4 4 2 2 3 4 4 5 5 6 6 7 7 7 8 8 8 9 8 8 9 11 12 13 13 13 12 12 13 11 9 10 11 8 7 9 9 9 9 9 10 10 10 10 10 10 10 10 11 11 12
17 15 14 13 13 12 10 8 8 8 8 7 6 5 4 4 5 5 5 4 3 3 5 3 1 3 6 7 7 5 5 6 5 5 5 5 5 5 5 4 3 5 5 4 4 4 5 6 7 7 7 9 8 8 8 8 9 10 11 12 12 11 10 11 12 12 10 9 10 10 8 8 9 9 9 9 9 10 11 11 11 11 10 10 11 11 12 12
15 14 13 12 11 11 10 8 7 7 7 7 6 5 4 5 6 6 6 6 5 5 5 4 3 2 4 6 7 6 6 7 7 7 7 7 7 6 6 7 5 5 4 4 4 3 4 6 7 6 7 8 8 8 8 8 9 10 11 11 9 7 7 8 8 8 6 7 8 8 7 8 9 9 9 9 10 10 11 11 11 11 11 11 11 12 12 12
14 13 11 10 9 8 7 5 4 5 7 7 6 5 4 5 6 5 4 6 6 5 5 5 5 3 3 4 6 7 7 8 8 8 9 8 8 8 8 8 8 7 5 5 5 4 4 6 7 5 5 8 9 9 8 7 8 8 9 10 7 5 6 6 6 6 5 5 6 6 6 8 10 10 9 10 10 10 10 11 12 11 11 11 12 13 13 13
13 12 12 11 9 7 6 4 3 5 7 7 6 5 4 5 6 6 3 3 4 5 6 6 5 4 3 3 4 6 8 8 9 10 10 9 10 10 9 10 9 9 8 7 8 7 6 7 7 6 6 9 10 9 8 8 7 7 8 9 8 6 6 6 7 7 6 4 5 6 7 10 11 9 9 10 10 9 10 11 12 12 12 12 13 13 14 14
11 11 11 11 10 8 6 4 4 5 7 8 7 6 5 4 5 6 4 1 2 3 5 6 5 4 4 3 4 6 8 9 10 11 11 11 11 11 12 13 13 12 11 10 10 9 7 7 8 7 8 11 12 10 8 8 7 8 8 9 7 5 4 5 7 8 8 6 7 8 9 11 11 10 9 11 10 10 11 12 13 13 14 14 15 15 15 16
Wind_Direction
233 233 233 231 230 230 231 229 228 230 233 237 240 241 243 248 251 255 262 269 274 274 274 273 267 259 245 233 224 226 218 200 188 180 177 175 172 170 164 162 156 121 92 63 28 18 14 6 3 2 1 15 24 22 74 146 112 82 63 37 37 42 40 44 45 45 46 41 41 42 48 51 44 44 47 53 58 65 69 61 63 76 100 124 141 149 150 157
234 234 233 232 231 230 231 231 229 229 232 236 240 242 243 246 250 253 260 266 271 271 269 269 266 258 247 232 222 223 213 198 189 189 187 181 177 176 173 167 152 134 115 42 16 22 20 5 9 11 8 15 24 47 74 116 112 85 56 40 44 47 44 49 53 52 48 45 48 47 48 45 45 52 51 51 55 63 63 55 65 79 101 123 137 146 151 159
235 234 233 233 232 231 230 231 231 230 231 234 239 242 243 245 247 251 257 263 267 268 266 265 262 257 249 231 222 217 206 193 186 187 184 181 183 181 178 169 158 154 135 19 14 28 20 6 9 13 15 16 22 53 84 114 103 75 54 46 48 51 47 54 63 58 51 56 56 49 47 40 44 55 51 52 54 56 58 58 72 88 116 132 138 150 154 151
235 233 233 233 233 231 230 231 231 231 231 232 237 240 242 244 246 249 255 260 264 266 262 260 259 256 248 232 220 207 197 185 181 184 178 177 181 180 180 172 168 171 149 18 15 20 11 6 7 15 30 34 38 49 93 119 97 68 61 55 58 58 49 56 68 60 55 63 61 53 51 41 47 55 52 61 53 42 49 68 91 110 132 137 137 150 151 145
236 234 233 233 233 232 230 230 231 231 231 231 234 238 241 243 245 247 252 257 259 263 260 257 258 254 247 234 214 198 188 178 182 186 178 178 179 178 178 175 176 179 161 11 7 13 11 9 13 28 45 43 35 41 89 115 102 70 60 74 79 64 49 55 66 61 57 60 55 51 50 45 51 51 53 66 53 42 51 67 91 109 125 130 133 143 146 147
236 234 233 233 233 232 231 230 230 231 231 232 233 236 239 242 243 244 249 253 255 259 256 254 256 250 248 231 203 191 185 183 190 188 180 181 180 179 179 179 182 182 183 341 355 8 13 11 17 34 48 48 40 47 84 101 102 78 51 78 87 69 53 53 57 60 60 56 49 45 45 49 54 47 52 63 51 50 57 67 81 90 106 108 108 128 144 155
235 234 233 233 233 233 232 230 229 230 231 232 233 234 236 239 241 242 246 251 252 255 253 252 252 247 244 218 194 190 191 195 199 189 184 187 185 184 182 182 185 187 203 329 347 355 4 5 11 36 51 53 47 45 70 101 101 86 77 85 83 74 62 54 53 56 59 53 46 44 43 48 54 51 51 53 47 53 59 64 71 76 91 91 86 111 136 156
235 234 233 233 233 233 232 231 229 229 230 231 232 234 234 236 239 241 244 248 249 252 250 249 248 244 233 204 193 196 198 199 198 190 189 195 194 189 185 186 188 194 218 298 321 334 2 12 17 39 47 38 37 30 31 89 90 74 89 100 84 70 62 58 52 53 54 46 46 48 42 43 54 58 54 51 51 56 61 63 65 65 73 77 82 107 128 150
236 234 233 233 232 232 232 231 229 228 229 230 232 233 233 234 236 239 242 245 247 248 248 245 244 242 222 199 194 199 200 196 193 192 194 201 200 192 188 190 190 197 227 280 298 322 11 28 24 32 32 20 28 24 26 67 74 48 101 112 92 66 60 65 54 50 50 42 46 43 33 38 55 56 46 44 55 59 62 64 61 59 63 72 76 94 126 152
236 234 232 232 231 231 231 231 229 228 228 229 231 232 232 233 234 236 239 243 244 245 246 241 240 237 214 200 195 198 200 197 196 197 199 201 196 191 192 194 194 201 226 273 294 325 20 32 21 21 22 18 24 22 30 53 25 43 120 116 97 80 59 67 59 47 41 38 45 39 29 37 49 44 32 33 54 59 62 61 54 56 60 65 61 58 86 159
237 235 233 231 230 230 230 230 229 227 227 228 230 230 231 231 231 233 236 240 242 242 243 239 238 227 207 201 199 200 199 200 204 203 204 198 191 193 195 195 195 200 219 257 282 315 3 15 15 22 36 30 20 16 32 35 15 39 105 77 71 74 40 56 61 42 31 25 36 39 27 26 29 29 30 41 57 60 65 59 47 56 55 49 51 47 50 111
236 234 233 231 229 229 228 229 228 227 226 226 228 229 229 229 229 231 232 237 238 238 239 237 233 217 205 204 204 203 202 207 212 206 206 200 195 197 196 196 197 206 223 245 270 289 327 360 16 22 24 19 19 26 21 357 351 23 108 66 37 34 11 24 33 23 23 14 28 41 22 16 16 15 34 55 60 59 62 56 43 51 46 38 38 34 41 59
235 234 232 231 229 227 227 227 227 226 225 225 226 227 229 228 227 228 229 233 234 235 235 233 228 213 204 206 203 203 209 217 214 208 208 206 202 201 199 200 204 213 225 239 256 257 290 347 12 2 350 4 16 21 359 341 336 345 78 272 317 7 334 301 344 3 17 12 31 36 15 5 2 358 30 58 59 57 55 47 39 40 35 35 36 29 36 60
234 233 231 230 228 226 226 226 226 226 224 224 224 226 227 227 226 226 227 230 231 232 231 228 221 207 202 207 206 208 220 224 211 205 206 205 202 203 204 205 209 216 219 230 240 233 259 316 344 339 338 352 356 355 356 349 341 335 307 284 254 269 297 290 323 352 8 1 19 26 9 357 355 352 33 59 60 57 52 40 34 36 31 30 31 30 35 56
234 231 230 229 227 226 225 225 225 225 223 222 223 224 226 226 225 224 224 226 227 228 227 221 214 205 206 213 211 214 224 226 216 209 206 202 199 202 206 208 213 216 219 228 229 235 262 295 329 333 329 336 347 354 359 3 3 12 15 273 255 245 276 297 312 322 359 355 1 15 4 354 355 352 41 61 65 56 50 35 31 35 30 28 27 31 37 41
233 230 229 227 226 225 224 224 223 223 222 221 222 223 224 225 223 221 221 223 224 224 219 212 208 205 207 213 215 221 225 225 224 212 204 200 197 201 206 209 215 217 222 227 227 248 264 264 280 302 324 336 353 5 1 5 10 17 41 74 240 152 111 308 313 291 332 4 359 4 3 357 357 348 30 58 65 51 45 33 32 35 29 29 27 30 35 34
233 230 228 226 225 224 223 222 221 221 220 220 221 221 222 222 221 220 219 219 219 216 210 206 206 207 207 212 218 222 219 218 215 203 199 199 199 204 209 210 214 215 220 231 241 259 258 245 273 310 334 346 360 17 6 352 351 360 21 35 27 110 86 319 320 304 319 357 353 360 359 349 355 2 32 49 54 47 43 32 29 31 25 23 24 29 31 26
232 229 226 225 223 222 222 220 219 219 217 218 219 219 220 220 219 217 213 213 213 210 208 205 200 200 206 212 214 212 213 209 200 196 198 198 200 207 211 211 210 209 216 230 236 235 231 238 319 343 346 350 355 15 8 323 323 343 357 21 27 95 343 309 312 317 324 346 348 1 348 341 356 21 44 40 42 43 38 32 29 26 24 23 25 32 26 16
232 228 225 223 222 221 220 218 217 215 214 215 216 216 217 216 214 211 208 209 209 205 203 201 195 196 204 213 211 207 210 203 195 198 200 197 199 204 208 208 203 202 205 205 211 211 211 237 304 331 336 346 344 346 338 309 313 330 323 353 20 295 322 310 305 323 338 349 346 351 352 359 21 36 44 23 18 37 29 21 24 25 27 30 34 30 17 6
231 227 223 222 220 219 217 214 213 211 209 209 209 209 208 208 207 208 209 209 208 204 199 196 199 208 216 217 213 208 208 199 194 199 198 196 196 197 205 204 197 199 197 191 202 212 203 229 255 288 308 328 331 309 315 332 340 343 322 327 329 296 317 312 305 320 334 345 335 346 16 33 60 37 30 15 13 33 20 10 19 28 33 36 39 26 11 7
229 225 222 219 217 216 212 210 208 206 205 203 203 201 201 203 202 206 209 211 212 209 207 206 208 216 223 224 223 223 222 210 204 204 199 199 194 193 207 202 194 203 204 198 207 226 215 236 262 286 293 302 312 305 329 346 340 342 342 340 340 326 316 305 305 324 337 342 333 360 42 22 19 25 15 9 20 17 2 13 19 23 33 36 36 22 10 12
226 222 219 216 213 211 207 205 203 202 201 199 197 197 199 200 199 203 206 211 216 210 209 216 216 219 226 227 228 228 224 216 214 213 205 201 196 196 206 197 193 202 204 200 210 245 258 255 269 282 295 306 302 304 337 345 334 347 359 350 329 326 325 316 318 336 341 336 332 29 52 11 3 15 6 0 6 1 356 14 17 21 32 29 25 18 10 13
223 219 215 211 208 205 202 200 198 197 196 194 193 193 195 195 195 202 204 207 215 210 209 214 214 217 224 228 227 221 216 210 211 213 206 201 198 199 201 194 196 202 202 201 206 235 259 261 269 279 299 312 306 314 337 343 2 20 344 335 323 323 334 325 324 353 348 337 128 78 46 3 357 1 4 359 1 14 17 21 27 32 31 15 12 16 12 16
219 214 210 206 202 200 198 195 193 193 193 192 193 193 192 192 193 202 204 203 210 212 209 209 210 217 221 223 222 214 211 207 206 210 206 200 197 199 201 194 195 201 207 211 213 237 254 258 270 294 311 306 307 325 350 5 331 323 324 335 335 333 341 339 351 39 13 4 157 88 24 343 347 355 359 357 6 24 24 33 38 27 21 14 13 17 14 18
213 208 203 200 197 195 192 190 189 189 188 188 190 192 193 196 198 200 200 200 208 212 208 207 212 218 218 217 218 212 209 209 209 208 203 199 193 194 201 197 194 201 213 226 238 248 252 259 278 304 312 301 311 314 329 51 316 307 310 310 312 322 334 356 32 69 69 218 240 308 1 321 323 343 347 360 12 17 15 28 32 16 20 24 21 22 21 25
207 201 197 194 192 188 186 186 186 184 184 185 187 190 194 197 195 193 192 196 207 208 201 201 206 209 209 209 209 202 200 212 213 204 198 198 195 192 198 200 198 204 215 231 247 249 252 274 292 295 286 282 313 294 265 315 323 308 299 292 291 305 320 317 299 240 204 227 261 288 313 284 293 308 314 11 8 9 13 12 6 12 26 27 26 30 33 36
198 193 190 188 185 182 182 183 182 181 182 184 189 194 195 193 189 187 186 194 207 202 194 197 198 198 201 203 196 187 195 212 209 200 195 196 196 193 198 205 204 212 220 232 250 248 254 294 306 300 279 279 289 274 274 303 313 294 290 291 295 302 305 291 268 260 255 257 280 290 285 236 250 258 285 35 2 4 18 4 353 16 34 32 35 36 36 40
189 185 184 183 180 179 180 180 179 181 183 185 187 189 187 186 185 180 178 187 196 193 191 194 194 194 199 197 189 185 194 199 192 196 195 191 193 192 201 210 207 220 230 225 242 249 241 266 281 294 310 286 262 252 270 297 294 285 287 294 297 299 300 294 280 268 268 278 273 258 228 223 247 241 299 23 351 345 1 352 355 27 42 37 39 33 29 33
180 178 178 177 176 177 178 177 177 180 184 184 183 184 181 180 179 172 173 183 186 187 189 187 188 193 194 190 189 190 195 196 189 191 191 191 196 194 203 213 212 226 233 219 230 245 238 243 256 272 295 282 260 258 274 285 284 286 298 312 314 316 318 312 290 270 281 279 217 215 205 209 249 248 255 315 313 314 324 336 353 17 29 29 33 30 25 25
172 172 173 172 170 172 172 173 176 178 180 180 177 177 174 173 170 165 174 182 178 182 184 182 186 188 183 183 191 193 192 198 188 184 191 197 197 197 203 212 214 222 230 227 233 244 251 260 265 262 263 268 271 281 284 273 271 294 325 335 330 326 328 322 294 266 284 268 215 205 194 187 255 251 240 260 285 296 313 332 349 2 12 20 24 23 19 16
166 166 168 168 166 166 167 169 172 172 173 173 170 167 164 163 164 164 175 177 172 178 180 182 188 184 177 180 190 190 187 195 183 177 193 195 192 198 202 211 217 217 230 242 245 257 273 277 272 262 255 261 289 315 315 296 300 318 325 329 318 311 324 334 314 291 289 273 223 194 181 10 284 244 238 261 278 293 320 327 342 360 9 16 14 8 4 3
162 163 165 167 165 164 165 165 166 165 166 165 161 160 157 157 167 172 174 172 172 180 181 183 187 183 179 180 185 183 181 189 184 176 188 187 188 197 199 204 207 207 227 236 248 278 288 281 271 264 254 245 269 326 331 335 342 330 322 333 321 304 311 323 319 318 275 237 212 198 201 338 315 244 239 257 271 300 325 323 334 2 4 4 358 355 357 355
159 162 164 167 166 163 163 163 163 161 161 160 158 157 154 154 169 173 171 173 175 177 176 178 181 177 176 178 181 180 177 186 187 180 186 184 189 201 204 205 197 194 216 231 259 283 292 296 281 253 253 252 243 276 310 318 322 322 327 340 331 313 307 296 296 321 210 184 192 214 283 318 298 289 277 263 304 323 336 325 330 359 352 347 346 349 350 348
158 161 163 166 166 166 166 164 162 159 158 158 156 153 153 160 169 168 171 177 175 171 169 171 173 171 174 177 177 174 174 187 191 179 181 184 187 197 205 211 204 201 214 237 266 270 294 310 287 215 232 246 240 250 278 296 298 285 271 301 335 341 321 271 256 226 209 202 220 265 302 252 235 283 300 304 352 349 356 327 326 342 337 338 342 343 344 342
156 159 161 163 165 167 168 165 160 157 156 155 152 152 160 168 167 164 173 174 169 170 166 163 164 168 176 179 178 178 178 187 191 180 180 185 187 191 199 214 216 211 214 234 257 267 303 315 267 232 242 232 249 270 291 302 289 274 271 307 328 327 336 274 232 180 178 199 269 293 293 239 217 282 303 318 347 335 337 333 334 336 333 336 336 335 338 339
153 156 158 161 163 163 161 159 156 155 153 149 149 157 164 163 158 158 166 164 160 161 158 157 161 168 179 182 186 194 192 188 188 186 187 187 192 199 203 217 220 213 211 219 244 268 300 300 276 297 310 291 261 268 314 321 281 277 294 304 291 285 97 106 109 123 141 182 282 291 213 213 217 287 297 312 325 313 319 328 333 333 332 335 331 330 335 336
150 152 155 160 162 158 155 154 152 152 151 145 149 159 161 160 162 157 158 159 155 152 151 155 163 168 177 182 188 194 191 188 187 188 194 196 206 217 223 231 225 213 211 218 241 251 245 268 281 297 315 298 272 277 337 340 315 297 301 287 276 276 343 207 198 302 327 295 272 267 210 218 240 269 278 289 304 301 301 307 320 325 326 329 328 328 332 332
150 152 156 160 159 155 153 153 152 151 147 143 147 152 148 152 153 150 162 165 153 148 150 157 163 168 175 179 185 186 183 187 190 191 198 202 212 222 222 224 209 198 209 222 245 250 231 242 277 296 298 282 293 320 323 328 332 273 270 288 283 285 313 308 252 281 306 291 275 271 256 252 257 260 262 272 284 288 293 299 309 314 315 320 323 325 327 326
150 150 153 157 157 154 154 153 151 148 144 143 147 145 141 149 148 154 175 172 156 150 153 163 166 166 180 186 184 183 183 189 192 195 201 203 212 219 204 198 192 193 211 223 240 248 231 218 254 292 292 273 298 320 305 314 316 266 263 315 323 287 295 302 266 262 270 269 270 272 274 271 263 254 251 261 272 276 286 297 302 305 308 313 317 319 320 320
146 146 148 152 153 152 152 151 148 144 142 146 149 144 142 146 143 154 163 158 163 164 161 176 181 175 193 199 189 189 192 190 193 201 204 202 208 218 213 208 210 220 239 248 249 249 237 219 237 281 291 283 294 298 288 309 312 283 281 308 324 315 302 297 293 294 287 267 260 265 277 274 266 259 253 256 272 280 287 295 297 300 305 310 312 314 315 317
142 144 148 151 151 151 150 148 148 146 144 144 144 144 148 148 149 158 146 138 165 172 163 173 183 184 193 197 198 203 202 198 201 208 209 207 206 213 222 224 226 238 251 260 264 256 241 229 236 272 291 286 278 272 268 284 281 269 272 275 288 298 295 291 290 294 301 283 260 261 273 273 268 266 264 266 277 284 288 294 298 300 306 308 310 311 313 316
144 146 149 150 151 152 150 148 152 151 147 145 147 150 152 151 158 165 141 120 159 171 165 166 175 176 175 183 198 200 196 205 217 210 206 207 207 216 229 235 241 251 251 246 245 245 241 234 241 263 270 266 271 273 275 283 276 270 271 265 265 280 290 285 276 283 298 291 277 279 280 275 270 267 269 275 279 282 288 295 299 302 307 308 310 313 314 317
149 149 149 151 154 155 151 151 157 157 151 151 158 173 174 163 167 169 145 129 155 162 150 160 171 166 163 177 187 174 172 194 211 198 193 199 213 230 237 243 257 258 254 249 246 249 255 254 256 264 266 272 281 282 284 292 291 281 276 272 265 271 282 279 267 272 283 276 272 287 286 276 271 271 276 284 285 287 292 296 299 303 308 309 310 312 314 315
151 150 149 152 156 156 152 154 159 160 160 154 155 184 186 171 171 172 163 160 167 162 153 164 173 172 175 178 168 165 164 166 184 189 187 197 220 236 232 237 255 252 249 247 246 251 254 252 256 266 274 285 290 289 291 298 296 281 275 274 266 265 280 287 276 275 279 272 265 274 278 273 272 275 285 292 293 293 291 292 297 302 307 308 308 311 313 312
149 149 151 156 161 160 158 160 161 160 166 160 157 177 170 161 163 163 162 169 171 162 158 180 192 184 183 173 159 168 167 160 171 182 186 201 217 226 212 182 232 245 246 242 243 249 247 244 248 251 256 267 273 276 282 290 294 289 282 280 273 269 276 281 277 276 276 271 269 272 272 273 275 278 284 289 292 296 294 291 296 302 305 306 307 311 312 310
148 149 151 157 164 166 168 172 168 163 166 162 162 165 152 156 166 161 155 166 171 165 163 184 204 199 188 176 170 175 174 173 173 169 188 211 224 243 259 257 247 258 253 246 248 250 246 249 248 237 238 247 251 261 271 283 294 294 287 282 278 273 271 270 269 270 269 270 277 276 268 266 271 274 279 284 289 296 296 293 295 299 301 302 304 307 307 307
152 152 153 156 164 169 172 179 179 174 174 170 169 172 159 165 181 183 179 179 175 182 191 199 222 210 198 193 192 196 200 195 185 190 216 227 233 259 284 287 296 316 297 272 268 256 246 258 258 243 243 248 249 263 278 287 293 295 296 291 284 278 275 271 270 269 267 271 276 274 267 262 265 271 279 285 290 295 295 294 292 292 295 298 300 302 303 304
161 162 163 161 166 170 172 183 190 188 194 199 195 196 199 192 189 190 202 209 200 197 203 210 234 212 201 198 198 210 224 216 212 225 236 244 250 267 286 281 296 337 330 308 296 259 237 254 266 261 261 262 264 275 284 291 296 303 310 307 299 292 285 280 278 274 268 264 262 262 266 268 268 273 280 284 288 291 293 295 292 289 292 295 296 298 299 300
167 170 171 166 169 179 184 189 191 193 203 201 188 191 200 197 193 196 209 218 216 214 209 204 209 218 219 212 206 219 234 225 226 237 239 246 255 260 270 268 274 307 310 295 298 273 241 259 272 273 275 277 280 283 286 295 303 307 312 311 310 310 305 300 296 287 276 266 258 257 267 277 278 278 282 287 291 293 297 301 298 291 288 293 295 295 296 297
169 175 178 171 173 184 186 183 184 192 193 177 168 183 194 183 184 193 213 217 213 219 219 206 206 219 242 237 221 225 234 228 231 244 245 248 257 261 260 256 259 276 279 272 282 282 262 266 272 274 278 279 282 286 291 298 305 311 312 309 310 318 317 317 315 305 295 278 268 269 278 288 290 287 288 294 297 299 304 308 306 298 289 290 294 293 294 297
176 180 179 175 178 181 173 177 194 187 181 176 177 191 193 181 180 183 200 214 200 206 212 204 205 219 239 264 254 244 244 240 244 255 256 252 254 256 255 253 259 269 269 266 274 279 274 271 275 281 281 277 280 290 295 293 297 312 315 307 304 308 307 310 316 313 300 275 270 283 286 287 292 294 295 299 302 305 309 310 312 310 300 293 291 291 294 299
175 177 175 173 177 179 174 192 206 180 180 190 193 196 197 188 185 188 194 181 137 173 195 194 198 215 227 256 274 264 258 255 256 260 261 258 258 258 256 260 264 263 262 264 269 272 272 271 275 279 278 276 278 285 290 289 294 303 301 294 295 302 308 320 327 321 308 292 282 285 286 287 294 301 303 304 307 310 312 310 310 310 306 301 298 296 297 301